Location: Newark
(30.0333°N, 31.2167°E)
Time: 01:01:09
(UTC+00:00)

Tiros 1 - Pass Details

Date: 27 January 2020
Orbit: 631 x 664 km, 48.4° (Epoch: 21 February)

Event Time Altitude Azimuth Distance (km) Brightness Sun altitude
Rises 15:19:34 0° 320° (NW) 2,971 10.8 0.7°
Reaches altitude 10° 15:22:12 10° 333° (NNW) 2,064 9.8 0.2°
Maximum altitude 15:26:17 28° 32° (NNE) 1,240 8.2 -0.6°
Drops below altitude 10° 15:30:23 10° 91° (E) 2,071 9.2 -1.4°
Sets 15:33:02 0° 103° (ESE) 2,984 10.0 -2.0°
